Theta_e
338 344 347 352 353 352 352 352 351 351 352 352 351 350 350 350 350 350 350 351 350 349 349 349 348 346 344 343 342 344 345 346 346 345 345 345 343 343 344 342 341 340 345
340 346 347 351 352 352 352 350 349 350 352 351 350 350 349 349 349 348 350 349 348 348 348 347 346 343 341 340 340 342 342 342 342 342 341 342 344 340 340 341 341 341 343
339 345 350 349 351 351 351 349 349 349 351 351 351 351 350 350 349 348 348 347 347 347 346 344 342 340 338 337 338 339 339 340 340 340 340 345 344 343 341 339 341 340 343
341 345 348 346 349 350 349 349 349 349 350 350 349 351 349 348 348 347 346 346 345 345 343 341 338 335 334 334 335 334 334 334 337 339 342 343 343 345 345 343 341 343 341
342 345 347 345 348 348 348 348 348 348 349 349 349 348 347 347 346 345 345 343 342 340 338 336 333 330 328 328 331 330 334 332 336 340 342 343 343 344 344 344 342 342 341
342 345 343 345 348 347 347 347 347 347 347 348 349 348 346 346 345 342 340 339 337 335 333 330 328 326 325 324 324 326 333 334 336 338 339 339 341 343 342 342 342 342 343
340 343 347 344 345 346 345 346 346 346 347 347 346 345 344 343 341 339 337 335 332 330 327 326 325 324 323 322 319 320 326 326 333 334 335 338 337 339 339 338 338 340 341
341 344 345 338 339 341 342 343 344 344 345 345 345 343 342 340 338 336 333 330 328 326 325 324 323 322 321 319 317 316 316 319 323 327 329 331 330 333 333 332 333 335 337
341 342 342 340 337 334 335 338 339 340 341 342 342 340 338 337 335 333 329 327 325 323 323 322 321 320 319 317 315 313 311 310 314 318 319 324 322 324 324 324 325 328 332
338 341 340 340 341 340 338 331 333 334 336 336 335 332 330 330 329 327 325 324 323 322 321 319 319 317 316 315 312 310 308 311 310 311 315 317 318 319 320 319 320 321 323
334 337 339 338 338 338 336 330 329 329 329 328 326 323 324 328 325 322 321 322 321 320 318 316 314 313 312 310 308 306 306 309 309 310 314 314 315 316 317 318 318 319 320
330 334 335 337 334 333 331 332 334 329 330 330 329 328 326 323 321 319 317 319 320 317 315 312 309 306 306 307 307 305 307 307 308 309 311 311 313 314 316 316 317 318 319
332 331 334 332 333 331 329 330 326 323 326 329 327 324 321 318 316 316 316 315 315 312 310 307 305 306 306 307 306 307 307 307 308 308 307 309 311 313 314 316 318 318 318
326 327 331 331 329 328 328 327 325 321 321 325 323 320 316 314 313 313 312 312 310 307 306 307 306 306 306 305 305 305 305 306 307 307 305 305 308 311 313 317 319 318 318
323 327 331 329 327 325 324 325 322 321 320 323 320 316 313 311 310 309 308 307 306 306 306 305 305 305 305 304 305 305 304 305 306 307 308 303 307 310 313 318 320 320 319
323 325 327 328 327 323 322 320 320 318 318 319 319 314 310 309 308 307 306 306 305 305 305 305 304 304 304 304 303 303 304 305 305 305 307 307 304 309 315 318 319 320 322
322 324 323 325 326 322 320 318 317 315 312 313 316 313 308 307 307 307 306 305 305 305 304 304 303 303 303 302 302 302 303 303 304 304 305 306 307 306 312 315 315 317 317
323 322 321 320 323 321 318 316 314 312 311 310 311 311 308 307 307 306 305 304 304 304 303 303 302 302 302 302 302 303 303 303 303 303 304 305 307 307 308 310 310 311 313
321 322 320 319 318 321 318 316 314 311 309 308 308 309 307 306 306 305 305 304 303 303 302 302 301 302 301 301 301 302 302 302 302 301 302 303 305 307 309 304 305 307 309
320 321 320 317 317 318 317 314 313 314 311 307 306 307 307 306 305 305 304 303 303 302 302 301 301 300 301 301 297 298 301 303 303 303 302 302 304 305 307 306 306 305 307
318 319 318 314 315 315 311 310 309 307 310 305 305 306 306 306 305 304 303 302 302 301 301 301 300 299 298 299 300 300 300 302 302 303 303 303 303 303 304 305 305 306 305
314 317 317 314 314 313 312 312 314 313 312 309 304 304 305 305 305 303 303 302 301 301 300 299 299 297 298 298 299 299 297 298 300 300 301 301 302 303 302 302 303 303 304
310 315 316 314 314 313 314 313 307 307 302 304 300 301 303 303 303 303 302 302 301 301 299 299 298 298 297 297 297 298 295 294 296 298 298 299 300 301 301 301 301 300 302
306 312 315 315 314 313 314 310 306 306 304 304 306 305 303 302 301 302 302 301 300 300 299 298 298 298 298 295 295 295 296 296 294 293 296 298 298 298 300 301 300 300 300
302 308 312 313 313 313 312 310 307 309 312 311 310 306 303 301 302 301 300 299 299 299 299 298 296 297 297 297 296 293 293 294 294 293 292 295 297 298 299 299 300 300 298
302 303 307 310 311 312 311 310 307 309 311 307 306 303 301 301 300 299 299 299 299 298 298 297 297 296 296 296 296 295 295 294 292 292 291 293 293 296 297 298 298 299 299
Wind_Speed
12 19 20 20 20 19 18 16 15 15 14 14 15 15 14 16 16 15 14 14 13 13 14 14 14 13 11 10 8 8 9 9 8 8 8 6 8 8 8 6 3 8 6
18 20 17 20 20 20 19 16 15 15 17 16 16 16 16 16 16 16 15 14 15 15 15 14 14 13 9 9 7 7 8 8 7 6 4 6 6 7 6 5 4 7 6
19 20 20 17 19 19 19 18 16 15 16 18 17 18 17 16 16 16 16 14 15 15 15 13 14 11 9 9 8 7 8 8 7 5 2 3 8 6 7 5 4 5 5
18 19 20 16 18 18 19 17 16 15 14 17 18 18 17 17 17 17 17 16 16 15 14 14 11 11 10 9 9 8 9 8 6 2 4 5 6 7 8 6 4 5 4
18 19 19 17 18 19 18 16 15 14 14 16 16 18 18 17 18 18 18 17 16 15 13 12 11 11 11 10 9 9 8 8 5 2 6 5 4 8 10 9 6 5 6
17 17 17 18 20 21 18 16 15 14 14 15 17 18 19 19 19 19 18 17 16 14 13 12 12 11 11 10 10 10 9 7 4 6 6 6 9 10 11 12 11 8 7
16 16 18 19 20 20 20 16 14 13 14 15 15 20 20 19 18 18 17 15 15 14 12 12 12 12 11 11 11 10 10 7 5 6 6 6 7 9 11 10 10 10 9
17 14 18 16 17 20 17 14 13 13 14 15 16 17 18 17 16 16 16 16 14 13 12 12 12 11 11 11 11 11 9 4 5 6 6 5 7 7 8 9 8 8 9
15 15 13 15 15 11 15 13 12 12 12 15 16 15 14 15 16 16 15 14 13 12 13 12 12 11 11 11 11 11 10 6 5 4 4 3 7 6 6 6 7 8 8
10 15 15 15 18 16 16 16 11 11 10 11 13 12 12 12 12 12 11 12 13 12 13 12 12 12 11 11 10 9 7 2 6 4 4 5 6 5 5 5 6 6 7
8 10 13 14 14 14 13 13 13 11 11 13 13 13 13 10 12 14 9 11 13 13 13 12 12 12 12 11 9 7 1 3 4 3 3 6 5 4 5 6 6 6 6
14 13 11 13 13 12 9 13 13 10 9 10 11 14 9 11 9 9 9 9 11 12 12 12 11 9 4 3 4 3 3 3 3 3 4 5 4 3 4 5 6 6 5
19 11 14 13 14 13 10 8 6 5 6 9 12 11 9 8 9 8 7 7 7 5 5 6 6 3 5 3 3 3 3 3 2 2 5 6 5 5 5 5 5 4 3
15 14 16 13 12 12 9 8 10 8 7 9 9 11 8 6 8 7 6 7 6 4 5 4 3 4 5 5 4 4 4 3 2 2 4 5 5 5 5 5 4 2 2
13 18 18 14 13 11 10 9 9 10 8 11 11 11 9 8 8 7 7 6 6 5 5 4 4 4 4 4 4 3 3 3 2 1 1 3 5 5 6 4 2 2 2
14 17 17 17 16 13 11 11 9 8 9 9 10 11 12 9 8 8 7 7 6 6 5 5 4 4 3 3 3 3 3 1 1 1 0 2 3 5 6 5 4 5 7
16 14 17 17 16 15 14 12 8 8 8 7 9 12 13 11 11 9 8 7 7 5 6 5 5 4 4 3 3 3 1 0 1 1 2 1 2 2 6 4 5 4 4
18 20 15 13 15 15 12 11 8 8 7 6 7 9 12 12 12 10 8 7 7 6 6 5 5 5 4 3 2 1 1 1 1 3 2 2 1 1 3 5 5 4 3
19 19 18 16 15 17 13 10 10 11 8 8 7 9 13 12 12 10 8 7 9 6 6 6 5 4 3 3 1 1 1 2 2 2 3 3 2 2 1 5 5 7 4
17 19 19 15 15 15 10 8 6 9 10 8 8 10 15 12 13 11 9 9 9 7 6 6 6 4 2 2 1 2 1 0 1 1 3 2 3 3 3 1 1 3 6
17 19 19 18 18 14 10 11 9 10 11 9 8 11 15 13 14 13 9 10 10 9 9 8 6 6 3 3 2 3 2 1 1 1 1 2 3 3 3 2 1 1 1
18 19 19 18 16 16 12 12 9 11 10 9 6 9 14 15 15 13 12 11 12 9 10 9 8 5 3 4 3 2 3 4 3 1 1 2 4 3 3 2 1 1 1
17 18 19 20 19 19 17 10 3 4 3 7 8 9 13 15 14 14 15 12 12 10 9 10 9 9 6 4 5 3 3 3 2 2 3 2 3 3 2 2 2 1 1
16 15 17 18 20 17 18 14 18 13 11 11 11 11 12 17 16 15 15 14 13 9 10 10 9 8 6 6 3 3 1 2 3 3 3 3 3 4 4 3 3 2 2
13 15 16 17 17 17 18 18 15 15 12 10 10 16 15 14 15 15 15 14 13 10 10 11 11 10 7 6 5 3 4 3 3 4 4 4 3 4 4 4 3 3 3
13 13 13 16 17 19 19 21 22 22 18 12 14 13 13 11 11 14 14 13 13 11 12 10 10 10 8 7 6 6 5 3 5 5 6 5 4 3 3 4 5 4 4
Wind_Direction
181 161 174 173 167 164 160 161 155 154 146 145 137 132 136 137 135 135 137 135 132 132 127 122 114 106 101 103 102 92 91 94 92 91 84 78 90 92 104 93 224 99 78
170 165 173 170 164 163 159 158 157 160 150 147 145 139 137 137 137 134 134 132 132 127 125 117 114 101 105 103 109 100 102 102 99 96 107 117 92 89 94 90 13 86 82
165 163 169 169 164 161 155 156 160 163 158 150 149 143 141 138 137 137 131 130 129 127 117 112 95 109 110 109 100 98 94 90 90 95 171 105 90 99 89 87 84 85 80
162 162 168 164 160 157 156 154 158 158 146 148 154 145 143 144 141 138 133 125 120 113 110 105 115 113 107 100 94 90 88 88 86 194 133 90 94 90 81 76 80 69 67
165 165 165 162 155 155 156 156 159 153 141 142 149 138 143 144 141 131 120 115 112 112 116 122 118 110 103 96 95 90 92 96 97 123 87 74 78 75 71 54 72 64 16
167 166 146 160 153 146 145 145 147 149 144 133 129 134 137 134 125 120 120 115 113 126 129 126 118 110 104 99 94 88 84 91 163 91 85 84 52 64 73 60 49 44 38
170 168 159 148 148 144 144 148 149 147 149 137 134 130 131 131 131 120 115 126 133 131 130 123 116 106 96 93 90 86 81 56 96 95 91 83 58 54 56 49 40 37 41
167 166 156 153 151 145 140 140 150 150 144 136 134 131 134 126 118 130 139 138 137 135 131 121 115 107 100 96 89 85 77 55 103 96 92 79 35 56 47 37 27 28 33
170 163 156 156 152 139 140 145 150 142 133 133 134 133 123 129 138 140 140 138 137 134 127 120 112 108 101 96 89 80 71 34 90 79 76 74 30 52 55 41 17 15 13
175 171 163 161 164 165 153 140 135 135 137 124 120 117 121 120 124 122 125 138 136 134 122 116 112 105 99 94 88 81 82 88 80 89 70 49 26 32 34 25 10 2 352
177 177 167 165 165 163 156 144 137 131 124 112 107 107 131 144 146 142 121 138 140 131 124 121 112 104 97 88 83 80 277 71 86 80 73 29 26 20 17 8 353 347 341
179 181 170 169 161 154 155 149 148 139 148 153 152 149 146 146 147 143 121 121 125 124 119 115 112 115 161 119 116 146 75 85 85 84 71 21 17 5 4 351 337 335 333
188 180 182 164 164 157 161 153 136 131 146 158 162 159 152 144 149 151 139 142 134 120 131 138 141 111 98 106 97 85 88 83 69 73 66 20 2 357 354 340 328 315 310
181 187 184 169 163 163 159 165 152 148 152 161 166 160 158 157 163 158 157 154 152 164 147 142 116 104 101 90 79 87 77 65 49 59 88 15 358 -0 353 335 316 326 302
195 194 191 170 168 162 164 163 164 158 162 169 166 168 169 168 171 161 156 161 160 161 153 143 131 129 122 119 122 120 104 93 82 59 14 46 360 1 342 316 21 43 70
201 202 194 187 174 165 170 170 169 161 160 165 174 173 174 173 172 169 166 166 166 167 156 153 149 148 147 161 136 95 75 71 40 346 322 135 20 5 351 8 43 27 47
209 197 194 194 181 176 174 166 169 164 160 164 174 178 177 178 176 174 172 172 165 157 149 147 150 157 169 169 143 128 140 96 310 290 290 308 144 96 4 23 60 24 23
205 206 186 189 194 183 175 170 164 164 162 169 169 179 184 181 178 177 176 175 161 159 166 172 170 168 176 178 167 152 211 238 246 259 257 262 216 219 146 41 34 21 22
206 205 195 187 195 196 179 173 170 169 175 171 173 184 186 186 181 178 178 171 169 165 175 177 173 184 175 175 197 235 294 292 284 251 238 238 220 230 201 83 50 34 29
205 207 200 190 196 194 180 164 167 179 187 183 185 188 183 187 185 184 178 168 172 172 177 182 167 149 156 164 211 247 249 249 259 244 220 213 200 198 192 208 207 85 38
210 210 201 194 194 185 178 175 178 190 194 185 189 184 190 188 189 188 180 171 176 183 183 179 155 159 158 176 213 191 183 172 160 106 178 200 183 183 169 176 201 288 97
208 209 202 201 191 194 187 189 196 199 196 191 184 187 196 192 187 187 181 182 185 181 177 175 174 159 157 185 212 239 218 176 175 121 158 189 192 188 174 177 134 29 14
210 205 199 200 199 197 195 182 141 118 104 180 183 192 202 196 187 188 188 184 184 186 180 179 181 181 173 183 226 279 193 228 171 160 169 182 189 200 192 201 179 151 101
211 205 204 197 198 195 189 181 185 191 189 199 201 195 190 192 193 193 189 187 184 185 182 179 180 187 182 181 182 216 272 341 234 199 181 192 202 215 216 215 216 187 172
203 198 202 199 197 191 191 190 194 206 209 193 195 189 193 191 194 189 190 188 187 185 185 179 177 187 192 190 186 162 196 207 227 248 249 173 207 211 227 235 224 207 205
206 199 197 198 201 194 194 195 199 204 201 185 187 184 187 186 184 186 187 186 185 186 182 183 183 188 191 201 197 196 195 191 195 209 235 234 250 178 215 226 225 214 209